Regional Weather Roundup
Issued by NWS

Home | Current Version | Previous Version | Graphics & Text | Print | Product List | Glossary On
Versions: 1 2 3 4 5 6 7 8 9 10 11 12 13 14 15 16 17 18 19 20 21 22 23 24 25 26 27
000
ASUS45 KTFX 221810
RWRMT
MONTANA REGIONAL WEATHER ROUNDUP
NATIONAL WEATHER SERVICE GREAT FALLS MT
1200 PM MDT SUN APR 22 2018

NOTE: "FAIR" INDICATES FEW OR NO CLOUDS BELOW 12000 FEET WITH NO
SIGNIFICANT WEATHER AND/OR OBSTRUCTIONS TO VISIBILITY.

MTZ001>007-043-221900-
WEST OF THE DIVIDE

CITY           SKY/WX    TMP DP  RH WIND       PRES   REMARKS
KALISPELL      FAIR      51  20  29 E3        30.19F
MISSOULA       FAIR      51  22  31 VRB6      30.19F
BUTTE          FAIR      48  25  40 NW6       30.14F
MULLAN PASS    FAIR      37  16  42 VRB5      30.17F
ANACONDA         N/A     46  21  36 NW8       30.15F
DEER LODGE       N/A     46  23  39 NW3       30.18F
HAMILTON         N/A     48  21  34 MISG      30.17F
PLAINS           N/A     53  24  32 CALM      30.20F
RONAN            N/A     50  19  29 SW8G16    30.22S
$$

MTZ008-052>055-221900-
SOUTHWEST MONTANA

CITY           SKY/WX    TMP DP  RH WIND       PRES   REMARKS
BOZEMAN        FAIR      54  26  34 VRB3      30.13F
DILLON         FAIR      51  29  42 NE6       30.10F
ENNIS          SUNNY     52  30  43 VRB5      30.14F
W YELLOWSTONE  FAIR      50  21  32 SW15      30.13F
THREE FORKS      N/A     54  25  32 NE2       30.11F
TWIN BRIDGES     N/A     53  26  35 N7        30.09F
$$

MTZ009-010-012-014-046-048-049-054-221900-
EAST SLOPES AND CENTRAL MONTANA

CITY           SKY/WX    TMP DP  RH WIND       PRES   REMARKS
CUT BANK       FAIR      49  15  25 W12G23    30.14S
GREAT FALLS    FAIR      51  18  27 NW12      30.15S
HELENA         FAIR      55  25  31 NW10      30.15F
CHOTEAU          N/A     50  14  23 CALM      30.16F
WHITE SULPHUR    N/A     50  23  34 NE6       30.12F
$$

MTZ011-013-016-021-045-047-050-051-221900-
NORTH CENTRAL MONTANA

CITY           SKY/WX    TMP DP  RH WIND       PRES   REMARKS
HAVRE          FAIR      54  22  28 VRB6      30.13F
LEWISTOWN      PTSUNNY   53  22  29 VRB5      30.13S
N BAR RANCH    FAIR      54  21  28 S17       30.15F
CHINOOK          N/A     55  21  26 SW9       30.14S
$$

MTZ017>020-022>027-061-062-221900-
NORTHEAST MONTANA

CITY           SKY/WX    TMP DP  RH WIND       PRES   REMARKS
GLASGOW        FAIR      60  23  24 W8G23     30.13S
GLENDIVE       FAIR      61  21  21 NW5       30.14F
JORDAN           N/A     57  23  26 VRB5      30.15S
MALTA          SUNNY     55  27  33 W8G15     30.11F
SIDNEY         FAIR      61  29  29 VRB3      30.13F
WOLF POINT     FAIR      62  27  26 W12       30.13F
PLENTYWOOD       N/A     57  25  28 W15       30.10F
POPLAR           N/A     61  27  27 S7        30.13F
SCOBEY           N/A     58  24  27 SW9       30.09F
$$

MTZ028>42-056>058-221900-
SOUTHCENTRAL AND SOUTHEAST MONTANA

CITY           SKY/WX    TMP DP  RH WIND       PRES   REMARKS
BAKER          FAIR      59  26  28 VRB5      30.15F
BILLINGS       FAIR      57  24  28 E12G17    30.12F
LIVINGSTON     FAIR      56  31  38 VRB3      30.11F
MILES CITY     FAIR      58  26  29 S3        30.14F
BIG TIMBER     SUNNY     55  25  30 VRB6G16   30.13F
EKALAKA          N/A     59  19  21 NE2       30.12
FORSYTH          N/A     57  19  23 E3        30.15F
LAUREL           N/A     59  23  25 E13G21    30.12F
$$

REGIONAL REPORTS...DAKOTAS

CITY           SKY/WX    TMP DP  RH WIND       PRES   REMARKS
WILLISTON      FAIR      62  31  31 NW10      30.13F
MINOT          FAIR      62  31  31 NW12      30.12S
DICKINSON      FAIR      62  23  22 VRB6      30.11F
BEACH          FAIR      59  19  21 NW8       30.17F
CROSBY         FAIR      59  27  29 W13       30.11S
TIOGA          FAIR      57  32  38 W10       30.14S
BISMARCK       FAIR      64  39  39 S14G20    30.14F
GRAND FORKS    FAIR      56  43  61 S21G29    30.19F
FARGO          FAIR      61  38  42 S15G28    30.22F
BUFFALO SD       N/A     63  24  22 NE13      30.07S
RAPID CITY     FAIR      59  39  47 CALM      30.14F
$$

REGIONAL REPORTS...WYOMING/IDAHO/WASHINGTON

CITY           SKY/WX    TMP DP  RH WIND       PRES   REMARKS
GILLETTE       FAIR      58  41  53 VRB3      30.14F
SHERIDAN       FAIR      58  28  32 VRB7G17   30.12F
BUFFALO WY     FAIR      55  28  35 SE9       30.15F
CODY           FAIR      58  28  32 CALM      30.12F
YELLOWSTONE LA   N/A     48  20  32 VRB5      30.20F
IDAHO FALLS    FAIR      62  32  32 SW10      30.10F
SALMON         FAIR      52  32  46 CALM      30.10F
BOISE          FAIR      55  30  38 NW14      30.12F
SPOKANE        PTSUNNY   46  27  47 SW3       30.27R
$$

REGIONAL REPORTS...ALBERTA

CITY           SKY/WX    TMP DP  RH WIND       PRES   REMARKS
CALGARY        MOSUNNY   48  10  21 N9        30.14R
CARDSTON         N/A     50  16  25 NW10        N/A
EDMONTON       CLOUDY    45  25  45 NW13G32   30.06R
FORT MCMURRAY  CLOUDY    46  37  71 NW14G20   29.88
HIGH LEVEL     PTSUNNY   34  28  80 NW13G18   30.08R WCI  25
LETHBRIDGE     PTSUNNY   50  19  29 N13       30.13S
LLOYDMINSTER   CLOUDY    43  34  70 W23G31    29.96R
MEDICINE HAT   MOSUNNY   54  21  28 VRB2      30.14R
MILK RIVER       N/A     54  21  28 NW8         N/A
PEACE RIVER    MOSUNNY   45  23  42 NW14      30.12R
PINCHER CREEK  MOSUNNY   46  16  29 NW6G17    30.14R
$$

REGIONAL REPORTS...SASKATCHEWAN

CITY           SKY/WX    TMP DP  RH WIND       PRES   REMARKS
CORONACH         N/A     59  25  27 SW8G17      N/A
CYPRESS HILLS    N/A     45  18  33 S2          N/A
ESTEVAN        MOSUNNY   61  30  31 W14G23    30.09S
MOOSE JAW        N/A     57  23  26 W22G29      N/A
PRINCE ALBERT  PTSUNNY   48  36  61 W21G33    29.84R
REGINA         MOSUNNY   57  25  28 W25G33    30.06S
ROCKGLEN         N/A     54  23  30 SW13G20     N/A
SASKATOON      MOSUNNY   52  30  43 W30G38    29.95R
SWIFT CURRENT  SUNNY     52  21  30 W17G24    30.09F
VAL MARIE        N/A     55  23  28 SW7         N/A
$$




USA.gov is the U.S. government's official web portal to all federal, state and local government web resources and services.